Vorticity
1 1 1 0 -0 -0 -0 0 1 2 2 3 4 4 5 5 5 5 6 7 9 12 15 17 17 15 14 13 11 10 8 6 6 7 9 10 11 12 12 11 11 10 10 9 9 8 8 7 7 7 7 6 6 6 6 5 5 5 5 4 7 10 9 2 -1 -2 -2 -2 2
0 0 0 0 -0 -0 0 1 2 2 3 4 4 4 5 6 6 7 8 10 12 15 17 18 17 16 14 13 10 8 7 6 7 8 9 11 11 11 11 10 10 10 10 9 9 8 8 8 8 8 7 7 7 6 6 6 5 5 4 4 7 10 10 4 1 1 2 2 5
0 0 0 -0 -0 0 1 2 2 2 3 4 4 5 6 6 7 8 10 11 14 16 18 18 17 15 13 11 9 7 6 6 7 9 10 11 11 11 10 10 10 9 9 9 9 9 9 9 9 8 8 8 7 7 7 7 6 5 4 5 7 10 12 10 5 3 3 4 7
0 0 -0 -0 0 0 1 1 2 3 4 4 5 5 6 7 8 9 11 12 16 19 20 18 16 14 12 9 8 7 6 7 8 9 10 11 11 10 10 9 10 10 10 10 9 9 9 9 9 9 8 8 7 7 7 8 6 5 5 6 7 8 10 13 6 2 2 5 8
0 -0 -0 -0 -0 0 1 2 3 4 4 5 5 5 6 8 10 11 13 15 19 20 19 16 14 11 9 7 6 6 6 8 9 10 10 10 10 10 10 10 11 11 11 11 10 10 10 10 10 9 9 8 8 7 7 7 6 6 6 7 7 7 7 6 2 0 2 7 10
-1 -1 -1 -1 -0 0 1 3 4 5 5 4 5 6 7 10 12 13 15 18 19 18 16 13 11 9 8 7 6 6 7 9 10 10 10 10 10 10 11 11 12 12 12 12 11 11 10 10 10 10 9 8 8 8 7 6 5 5 6 6 7 7 7 4 4 5 7 11 10
-1 -2 -2 -1 0 1 3 4 5 5 4 4 5 7 9 12 14 16 17 17 16 15 13 11 9 8 7 6 6 7 8 9 9 10 10 10 10 11 12 13 13 13 12 12 11 11 10 9 9 9 9 8 8 7 7 6 6 5 5 5 7 7 7 6 6 9 11 13 10
-2 -2 -1 -0 2 3 5 5 5 5 4 4 6 9 12 14 15 15 15 16 15 13 11 9 7 6 6 6 6 7 8 9 9 10 10 10 11 12 13 13 13 12 12 11 10 10 9 8 7 7 7 7 7 6 6 5 6 6 6 6 7 8 9 8 10 12 13 13 10
-2 -1 -0 1 3 4 5 5 5 4 4 5 8 11 14 15 14 14 14 15 13 10 8 7 6 6 6 6 7 8 9 9 10 10 11 12 12 13 13 13 12 11 11 10 9 9 8 8 7 7 6 6 6 5 5 5 6 7 7 7 7 9 10 10 11 11 11 10 9
0 0 1 3 4 5 6 5 5 4 5 7 10 13 15 15 13 13 13 12 9 8 7 6 6 6 6 7 8 9 9 10 10 11 12 13 13 12 12 11 11 10 10 9 9 8 8 7 7 7 7 6 6 5 5 6 7 7 8 9 8 8 8 8 8 8 9 11 12
4 4 4 6 6 6 6 5 4 5 6 9 13 16 17 15 13 12 11 9 8 8 7 6 6 6 7 8 8 9 10 10 11 12 12 13 12 12 11 10 10 9 8 8 8 8 8 7 7 6 6 6 6 6 6 7 8 9 9 10 9 7 6 4 8 9 9 7 10
7 7 7 8 7 6 5 4 4 5 7 12 16 18 18 15 12 10 9 8 8 7 6 6 6 7 7 8 9 10 11 11 12 12 12 12 12 11 10 9 9 8 7 7 7 7 7 7 6 6 5 6 7 7 7 8 9 10 10 11 10 9 8 9 13 15 15 12 12
10 9 8 7 6 5 4 4 4 6 10 15 19 19 16 13 10 8 7 8 7 7 6 6 7 7 8 9 10 11 12 12 12 12 12 11 11 10 9 9 8 8 7 7 6 7 7 7 7 7 6 6 7 8 8 9 10 10 11 11 11 10 11 13 15 16 16 13 11
10 9 8 6 5 4 4 4 6 9 13 18 20 18 14 10 8 7 7 7 7 6 6 7 7 8 8 9 11 12 12 12 12 12 11 10 10 9 8 8 7 7 7 7 7 7 7 7 8 9 9 8 8 8 9 9 10 11 11 11 11 11 11 12 11 10 10 8 7
9 7 6 4 4 4 4 5 8 12 17 21 19 15 11 7 6 6 6 7 7 6 7 7 7 8 9 11 12 12 12 12 11 11 10 10 9 9 8 7 7 7 7 7 7 8 9 9 10 10 11 10 9 8 9 10 11 11 11 10 10 10 10 9 8 7 6 4 4
7 5 4 4 4 4 5 7 11 15 19 21 17 13 8 6 5 6 6 7 7 7 7 8 8 9 10 12 12 12 12 11 11 10 10 9 9 9 8 8 8 8 8 8 9 10 10 11 11 11 10 9 9 9 10 11 11 11 10 10 9 8 7 6 6 5 4 3 3
5 4 4 3 4 4 6 9 14 18 20 19 14 10 7 5 5 6 7 7 7 7 8 8 9 10 12 12 12 12 11 11 10 10 10 10 9 9 8 8 8 9 9 10 10 10 11 11 11 10 10 9 10 11 11 11 10 10 9 9 8 7 6 5 4 4 3 3 3
4 4 4 4 5 6 9 12 16 19 20 17 12 8 6 5 5 6 7 7 8 8 8 9 10 11 12 12 11 11 11 10 10 10 10 10 9 9 9 9 10 10 11 12 11 11 10 10 9 10 10 11 11 11 11 10 9 8 8 7 6 6 5 4 4 3 3 3 3
4 4 4 5 6 8 11 15 18 19 17 13 9 7 5 6 6 7 7 8 8 9 9 10 11 11 11 11 10 10 10 10 10 10 10 9 9 9 9 10 11 11 12 12 11 11 10 10 10 11 11 12 11 10 10 9 8 7 7 6 5 5 4 4 3 3 3 3 3
5 5 6 7 8 10 13 16 18 17 14 11 8 6 6 6 7 7 8 8 9 9 10 11 11 11 11 10 9 9 9 10 10 9 9 9 9 9 10 11 11 12 12 11 10 10 10 11 11 11 11 10 10 9 8 7 7 6 6 5 4 4 3 3 3 3 3 3 4
6 7 7 9 10 13 15 17 17 15 12 9 7 7 7 7 8 9 9 9 9 9 10 11 11 10 10 9 9 9 9 10 9 9 9 9 9 10 11 11 12 11 11 10 10 11 11 11 11 11 10 9 8 7 7 6 6 5 5 4 3 3 3 3 3 3 3 4 4
8 9 9 10 12 14 15 16 15 13 10 8 7 7 8 8 10 10 10 9 8 9 10 11 10 9 9 8 9 9 9 9 9 9 9 9 10 11 11 11 11 11 10 11 11 11 11 11 11 9 8 7 7 7 6 6 5 4 4 3 3 3 3 3 3 4 4 4 4
10 10 11 12 13 14 15 14 12 10 9 8 8 9 10 11 11 10 9 7 8 10 11 11 9 8 8 8 9 9 9 8 9 9 10 11 11 11 11 11 11 11 11 11 11 11 11 10 9 9 8 7 7 6 6 5 4 3 3 2 2 3 3 3 4 4 4 5 5
11 12 12 12 13 13 13 12 10 9 8 8 9 11 13 13 11 8 7 7 9 10 11 10 8 8 8 9 9 9 9 8 9 10 11 11 11 10 10 10 11 11 11 11 11 11 10 9 8 7 7 7 6 5 4 4 3 3 2 2 3 3 3 4 4 4 5 5 6
12 12 12 12 12 12 11 10 10 9 9 10 13 14 14 11 7 5 5 7 10 11 11 9 8 8 9 10 10 10 9 10 10 10 10 10 10 10 10 11 11 11 11 11 11 10 9 8 7 6 6 6 5 4 4 3 3 3 3 3 3 3 3 4 4 5 6 7 7
12 12 11 11 11 11 11 10 10 10 12 15 17 15 10 5 4 4 6 9 12 12 10 8 8 9 9 10 10 10 10 11 11 10 9 8 8 9 11 11 11 11 11 11 10 9 8 7 6 6 5 5 4 3 3 2 3 3 3 3 3 4 4 4 5 6 7 8 8
12 11 10 10 11 11 11 11 11 13 16 19 15 10 5 2 3 5 8 13 13 11 9 8 8 9 10 10 10 10 11 11 11 10 9 8 8 10 11 11 11 11 11 10 9 7 6 6 6 5 5 4 3 3 3 2 3 3 3 3 4 4 5 6 7 7 8 8 8
10 10 10 10 11 12 12 12 16 20 20 16 9 5 3 2 5 9 12 15 12 9 8 8 9 9 10 10 11 11 11 11 10 9 8 8 10 10 11 11 11 11 10 8 7 6 6 5 5 4 4 3 3 3 3 3 3 3 3 4 4 6 7 7 8 8 8 9 9
10 10 11 12 13 15 17 21 24 22 16 8 4 2 2 4 9 13 15 13 10 8 8 9 9 10 10 11 12 11 11 10 8 7 7 9 10 11 12 12 11 10 8 7 6 5 5 5 4 4 3 3 3 3 3 3 3 3 4 5 6 7 8 8 9 9 9 9 10
13 14 16 18 20 23 26 27 21 13 6 2 2 2 5 9 14 15 13 10 8 8 9 10 10 11 12 12 12 11 10 8 7 7 9 10 11 12 12 11 10 8 7 6 5 5 4 4 3 3 3 3 3 3 3 3 3 4 5 6 7 8 8 9 9 9 10 10 10
23 24 26 28 29 27 23 16 9 4 2 1 3 6 9 14 16 13 10 8 8 9 10 10 11 12 12 12 11 10 8 6 7 9 10 11 12 12 11 10 8 7 6 5 4 4 4 3 3 3 3 3 3 3 3 3 4 6 7 8 8 9 9 9 10 10 10 11 11
32 31 30 27 22 16 10 5 3 2 3 4 7 11 15 17 13 10 8 8 9 10 10 11 11 12 12 11 10 8 6 6 8 10 12 12 12 11 10 8 6 5 5 4 4 3 3 2 2 3 3 3 3 3 4 5 6 7 8 9 9 9 10 10 10 10 11 12 12
25 22 18 13 9 6 4 3 3 4 5 7 11 14 15 12 9 8 8 9 10 10 11 12 12 12 11 10 7 6 6 8 10 11 12 12 11 10 8 6 5 5 4 4 3 3 2 2 3 3 3 3 3 4 5 6 7 8 9 9 9 10 10 10 10 11 11 12 12
8 6 5 4 3 3 4 4 5 6 8 11 15 14 12 9 8 8 9 9 10 11 12 13 13 12 10 7 6 6 7 9 11 12 12 11 10 8 6 5 5 4 4 3 2 2 2 3 3 3 3 3 4 6 7 8 9 9 9 9 9 10 10 11 11 11 12 11 11
-4 -2 -0 1 2 3 4 5 6 9 12 15 14 11 9 9 9 9 10 10 11 12 12 13 12 10 8 6 6 7 8 10 11 11 11 9 8 6 5 5 4 4 3 2 2 3 3 3 3 3 3 4 6 7 8 9 9 9 9 9 10 10 11 11 12 12 11 11 10
-2 0 3 4 4 4 6 8 10 13 14 13 11 10 9 10 10 10 10 11 11 12 13 13 10 8 6 5 6 8 10 11 11 10 9 8 6 5 5 4 4 3 2 2 3 3 3 3 3 4 4 6 7 8 9 9 9 9 9 10 10 11 11 11 11 11 11 10 9
10 9 8 6 6 7 10 13 14 14 12 10 10 10 10 10 10 10 11 11 13 13 13 11 8 6 5 5 7 10 11 11 10 9 8 6 5 4 4 3 3 2 2 3 3 3 3 3 4 5 6 7 8 9 9 9 9 9 10 10 11 11 12 11 11 10 9 9 8
14 11 8 8 10 12 14 14 13 12 11 11 11 11 11 10 10 11 12 13 14 14 12 9 6 4 4 6 9 11 12 12 10 8 6 6 5 4 3 2 2 3 3 3 3 3 3 4 5 6 7 8 9 9 9 9 9 10 10 11 11 11 11 11 10 9 8 8 7
9 8 9 12 13 13 13 12 12 12 12 12 11 11 10 10 11 12 13 14 14 13 9 6 4 4 5 8 10 11 12 11 10 8 6 5 4 3 3 2 3 3 3 3 3 3 4 5 6 7 8 9 9 9 9 9 10 10 11 11 11 11 10 10 9 8 8 7 6
8 9 11 12 11 11 11 12 13 13 12 12 11 11 10 10 11 12 13 14 13 10 7 3 3 4 7 10 11 12 11 10 8 7 6 5 4 3 2 3 3 3 3 3 3 4 5 6 7 8 9 9 9 10 10 10 10 10 11 11 11 10 9 9 8 8 7 6 6
8 9 9 9 10 11 12 13 13 13 12 11 11 11 11 11 12 13 13 13 11 8 4 2 3 6 8 11 12 11 10 8 7 6 5 4 3 3 3 3 3 3 3 3 4 5 6 7 8 9 9 9 10 10 10 10 10 11 11 11 10 9 8 7 7 7 6 6 5
Height
3082 3083 3084 3086 3087 3089 3090 3091 3092 3093 3094 3095 3096 3097 3097 3098 3098 3098 3098 3098 3099 3099 3099 3099 3098 3098 3098 3098 3098 3099 3100 3100 3100 3101 3101 3101 3101 3101 3101 3101 3101 3102 3102 3102 3102 3102 3101 3101 3101 3101 3101 3102 3102 3102 3102 3102 3102 3102 3102 3101 3101 3101 3101 3100 3101 3101 3102 3102 3101
3080 3081 3083 3084 3086 3087 3088 3090 3091 3092 3093 3094 3095 3095 3096 3096 3096 3097 3097 3097 3097 3097 3097 3097 3097 3096 3097 3097 3097 3098 3098 3099 3099 3100 3100 3100 3100 3100 3100 3100 3100 3100 3101 3101 3100 3100 3100 3100 3100 3100 3100 3100 3100 3100 3100 3100 3100 3100 3100 3100 3100 3100 3099 3099 3100 3101 3101 3100 3100
3079 3080 3081 3083 3084 3085 3087 3088 3089 3090 3091 3092 3093 3094 3094 3095 3095 3095 3095 3095 3095 3095 3095 3095 3095 3095 3095 3095 3096 3096 3097 3097 3098 3098 3098 3099 3099 3099 3099 3099 3099 3099 3099 3099 3099 3099 3099 3099 3099 3099 3099 3099 3099 3099 3099 3099 3099 3099 3099 3099 3099 3098 3098 3097 3098 3100 3100 3100 3099
3077 3079 3080 3081 3082 3084 3085 3086 3088 3089 3090 3091 3091 3092 3093 3093 3093 3093 3093 3093 3094 3094 3094 3094 3094 3094 3094 3094 3095 3095 3096 3096 3097 3097 3097 3097 3097 3097 3097 3098 3098 3098 3098 3098 3098 3098 3098 3098 3097 3097 3097 3097 3097 3097 3097 3098 3098 3098 3098 3098 3097 3097 3097 3097 3096 3098 3099 3099 3097
3075 3077 3078 3080 3081 3083 3084 3085 3086 3087 3088 3089 3090 3090 3091 3091 3091 3091 3091 3092 3092 3092 3092 3092 3092 3092 3093 3093 3094 3094 3095 3095 3095 3095 3096 3096 3096 3096 3096 3096 3096 3096 3096 3096 3096 3096 3096 3096 3096 3096 3096 3096 3096 3096 3096 3096 3096 3096 3096 3096 3096 3096 3095 3095 3095 3097 3097 3096 3095
3074 3075 3077 3078 3080 3081 3082 3083 3084 3085 3086 3087 3088 3089 3089 3090 3090 3090 3090 3090 3090 3091 3091 3090 3091 3091 3091 3092 3092 3093 3093 3094 3094 3094 3095 3095 3095 3095 3095 3095 3095 3095 3095 3095 3095 3095 3095 3095 3095 3095 3095 3094 3094 3094 3095 3095 3095 3095 3095 3095 3095 3094 3094 3094 3095 3095 3095 3093 3093
3072 3074 3075 3076 3078 3079 3080 3081 3083 3084 3085 3085 3086 3087 3087 3088 3088 3088 3088 3089 3089 3089 3089 3089 3090 3090 3090 3091 3091 3092 3092 3092 3093 3093 3093 3093 3093 3093 3094 3094 3094 3094 3094 3094 3094 3094 3094 3093 3093 3093 3093 3093 3093 3093 3093 3093 3093 3093 3093 3093 3093 3093 3092 3093 3093 3093 3092 3092 3092
3071 3072 3073 3075 3076 3077 3079 3080 3081 3082 3083 3083 3084 3085 3086 3086 3086 3086 3087 3087 3087 3087 3088 3088 3088 3089 3089 3090 3090 3090 3091 3091 3091 3091 3092 3092 3092 3092 3092 3092 3092 3092 3092 3092 3092 3092 3092 3092 3092 3091 3091 3091 3091 3091 3091 3091 3091 3091 3091 3091 3091 3091 3091 3091 3091 3091 3090 3090 3090
3069 3070 3072 3073 3074 3075 3077 3078 3079 3080 3081 3082 3083 3083 3084 3084 3085 3085 3085 3085 3086 3086 3086 3086 3087 3087 3088 3088 3089 3089 3090 3090 3090 3090 3090 3090 3090 3090 3090 3090 3091 3091 3091 3090 3090 3090 3090 3090 3090 3090 3090 3090 3090 3090 3090 3090 3090 3090 3090 3090 3090 3090 3090 3090 3090 3090 3090 3090 3090
3067 3068 3070 3071 3072 3074 3075 3076 3077 3078 3079 3080 3081 3081 3082 3082 3083 3083 3084 3084 3084 3084 3085 3085 3085 3086 3086 3087 3087 3088 3088 3088 3088 3089 3089 3089 3089 3089 3089 3089 3089 3089 3089 3089 3089 3089 3089 3089 3089 3089 3089 3089 3089 3089 3089 3089 3089 3089 3089 3089 3089 3089 3089 3090 3089 3089 3088 3088 3088
3065 3067 3068 3069 3070 3072 3073 3074 3075 3076 3077 3078 3079 3080 3080 3080 3081 3081 3082 3082 3082 3083 3083 3084 3084 3085 3085 3086 3086 3086 3087 3087 3087 3087 3087 3087 3087 3087 3087 3088 3088 3088 3088 3088 3088 3088 3087 3087 3087 3087 3087 3087 3087 3087 3088 3088 3088 3088 3088 3088 3088 3088 3089 3089 3089 3088 3087 3087 3086
3063 3065 3066 3067 3069 3070 3071 3072 3073 3074 3075 3076 3077 3077 3078 3079 3079 3080 3080 3080 3081 3081 3082 3082 3083 3083 3084 3084 3085 3085 3085 3085 3086 3086 3086 3086 3086 3086 3086 3086 3086 3086 3086 3086 3086 3086 3086 3086 3086 3086 3086 3086 3086 3086 3086 3087 3087 3087 3087 3087 3087 3087 3087 3086 3086 3086 3086 3086 3085
3061 3063 3064 3065 3066 3067 3069 3070 3071 3072 3073 3074 3075 3075 3076 3077 3078 3078 3078 3079 3079 3080 3080 3081 3082 3082 3083 3083 3083 3084 3084 3084 3085 3085 3085 3085 3085 3085 3085 3085 3085 3085 3085 3085 3085 3085 3085 3085 3085 3085 3085 3085 3085 3085 3085 3086 3086 3086 3086 3086 3086 3085 3085 3085 3085 3085 3085 3085 3084
3059 3060 3061 3063 3064 3065 3066 3068 3069 3070 3071 3072 3073 3074 3075 3075 3076 3076 3077 3077 3078 3079 3079 3080 3080 3081 3081 3081 3082 3082 3083 3083 3083 3083 3083 3083 3083 3083 3083 3083 3083 3083 3084 3084 3084 3084 3084 3084 3084 3084 3084 3084 3084 3085 3085 3085 3085 3085 3085 3085 3085 3085 3085 3084 3084 3084 3084 3083 3083
3057 3058 3059 3061 3062 3063 3065 3065 3067 3068 3069 3070 3071 3072 3072 3073 3074 3075 3075 3076 3076 3077 3078 3078 3079 3079 3080 3080 3080 3081 3082 3082 3082 3082 3082 3082 3082 3082 3082 3082 3082 3082 3082 3082 3082 3082 3082 3083 3083 3083 3083 3084 3084 3084 3084 3084 3084 3084 3084 3084 3084 3084 3084 3084 3083 3083 3083 3082 3082
3054 3056 3057 3059 3060 3061 3062 3064 3065 3066 3067 3068 3069 3070 3070 3071 3072 3073 3074 3074 3075 3076 3076 3077 3077 3078 3079 3079 3080 3080 3080 3081 3081 3080 3080 3080 3080 3080 3080 3080 3081 3081 3081 3081 3081 3081 3081 3082 3082 3082 3083 3083 3083 3083 3083 3083 3083 3083 3083 3083 3083 3083 3083 3082 3082 3082 3082 3081 3081
3052 3054 3055 3056 3058 3059 3060 3061 3063 3064 3065 3066 3067 3068 3069 3070 3070 3071 3072 3073 3074 3074 3075 3075 3076 3077 3077 3078 3079 3079 3079 3079 3079 3079 3079 3079 3079 3079 3079 3079 3079 3080 3080 3080 3080 3080 3080 3081 3081 3082 3082 3082 3082 3082 3082 3083 3083 3083 3083 3083 3082 3082 3082 3081 3081 3081 3081 3080 3080
3050 3052 3053 3055 3056 3057 3059 3060 3061 3062 3063 3064 3065 3066 3067 3068 3069 3070 3070 3071 3072 3073 3074 3074 3075 3075 3076 3077 3077 3078 3078 3078 3078 3078 3078 3078 3078 3078 3078 3078 3078 3078 3079 3079 3079 3080 3080 3080 3081 3081 3081 3081 3081 3082 3082 3082 3082 3082 3082 3082 3081 3081 3081 3081 3080 3080 3080 3079 3079
3048 3050 3051 3053 3054 3055 3057 3058 3059 3060 3061 3062 3063 3064 3065 3066 3067 3068 3069 3070 3071 3072 3072 3073 3074 3075 3075 3075 3076 3076 3076 3077 3076 3076 3076 3076 3076 3077 3077 3077 3077 3077 3078 3078 3079 3079 3079 3080 3080 3080 3080 3080 3081 3081 3081 3081 3081 3081 3081 3081 3081 3080 3080 3080 3080 3079 3079 3078 3077
3046 3048 3050 3051 3052 3054 3055 3056 3057 3058 3060 3060 3061 3062 3063 3064 3065 3066 3067 3068 3070 3070 3071 3072 3073 3073 3074 3074 3075 3075 3075 3075 3075 3075 3075 3075 3075 3075 3075 3076 3076 3077 3077 3078 3078 3078 3079 3079 3079 3080 3080 3080 3080 3080 3080 3080 3080 3080 3080 3080 3080 3080 3080 3079 3079 3078 3077 3077 3076
3045 3046 3048 3049 3050 3051 3053 3054 3055 3056 3057 3058 3059 3060 3061 3063 3064 3065 3066 3067 3068 3069 3070 3071 3071 3072 3072 3073 3073 3074 3074 3074 3074 3074 3074 3074 3074 3074 3075 3075 3076 3076 3077 3077 3077 3078 3078 3079 3079 3079 3079 3079 3080 3080 3080 3080 3080 3080 3080 3080 3079 3079 3079 3078 3077 3077 3076 3075 3074
3043 3045 3046 3047 3048 3050 3051 3052 3053 3054 3055 3056 3057 3058 3060 3061 3062 3063 3065 3066 3067 3068 3069 3070 3070 3070 3071 3071 3072 3072 3072 3072 3072 3072 3073 3073 3073 3074 3074 3075 3075 3075 3076 3076 3076 3077 3078 3078 3078 3078 3078 3078 3079 3079 3079 3079 3079 3079 3079 3079 3078 3078 3077 3077 3076 3075 3074 3073 3072
3041 3043 3044 3045 3046 3048 3049 3050 3051 3052 3053 3054 3055 3057 3058 3059 3061 3062 3063 3065 3066 3067 3068 3068 3069 3069 3069 3070 3070 3070 3070 3070 3071 3071 3071 3072 3072 3073 3073 3074 3074 3075 3075 3075 3076 3077 3077 3077 3077 3077 3078 3078 3078 3078 3078 3078 3078 3078 3078 3078 3077 3077 3076 3075 3075 3074 3073 3072 3071
3039 3040 3042 3043 3044 3046 3047 3048 3049 3050 3051 3052 3054 3055 3056 3058 3060 3061 3062 3064 3065 3066 3066 3067 3067 3067 3068 3068 3069 3069 3069 3069 3069 3070 3070 3071 3071 3072 3072 3073 3073 3074 3075 3075 3075 3076 3076 3076 3076 3076 3077 3077 3077 3077 3077 3077 3077 3077 3077 3076 3076 3075 3075 3074 3073 3072 3071 3070 3070
3037 3039 3040 3041 3042 3044 3045 3046 3047 3048 3049 3050 3052 3054 3055 3057 3058 3060 3061 3063 3064 3065 3065 3065 3065 3066 3066 3067 3067 3067 3067 3068 3068 3069 3069 3070 3070 3071 3072 3072 3073 3073 3074 3075 3075 3075 3075 3075 3075 3076 3076 3076 3076 3077 3077 3076 3076 3076 3075 3075 3075 3074 3073 3072 3071 3071 3070 3069 3068
3035 3037 3038 3039 3041 3042 3043 3044 3045 3046 3048 3049 3051 3053 3054 3056 3057 3059 3060 3062 3063 3063 3064 3064 3064 3065 3065 3065 3065 3065 3066 3066 3067 3068 3068 3069 3070 3070 3071 3071 3072 3073 3073 3074 3074 3074 3075 3075 3075 3075 3075 3075 3076 3076 3076 3075 3075 3075 3074 3074 3073 3073 3072 3071 3070 3069 3068 3067 3066
3033 3035 3036 3037 3039 3040 3041 3042 3044 3045 3046 3048 3050 3051 3053 3055 3056 3058 3059 3060 3061 3062 3062 3062 3063 3063 3063 3064 3064 3064 3065 3065 3066 3067 3068 3068 3069 3069 3070 3071 3072 3072 3073 3073 3073 3074 3074 3074 3074 3074 3075 3075 3075 3075 3075 3075 3074 3074 3073 3073 3072 3071 3070 3070 3069 3068 3067 3066 3065
3031 3033 3034 3036 3037 3038 3040 3041 3042 3044 3045 3047 3049 3050 3052 3054 3055 3057 3058 3059 3060 3060 3060 3061 3061 3061 3062 3062 3062 3063 3064 3065 3065 3066 3067 3067 3068 3069 3070 3070 3071 3072 3072 3072 3073 3073 3073 3073 3074 3074 3074 3074 3074 3074 3074 3074 3073 3073 3072 3071 3071 3070 3069 3068 3067 3066 3065 3064 3063
3030 3031 3032 3034 3035 3036 3038 3040 3041 3043 3045 3046 3048 3049 3051 3053 3055 3056 3057 3058 3058 3059 3059 3059 3060 3060 3060 3060 3061 3062 3063 3064 3065 3065 3066 3067 3068 3068 3069 3070 3070 3071 3071 3072 3072 3072 3072 3073 3073 3073 3073 3073 3073 3073 3073 3073 3072 3072 3071 3070 3069 3068 3067 3067 3066 3065 3064 3063 3062
3028 3029 3030 3032 3034 3035 3037 3039 3040 3042 3043 3045 3046 3048 3050 3052 3054 3055 3056 3056 3057 3057 3057 3058 3058 3058 3059 3060 3060 3061 3062 3063 3064 3065 3065 3066 3067 3068 3069 3069 3070 3070 3071 3071 3071 3071 3072 3072 3072 3072 3072 3073 3072 3072 3072 3072 3071 3070 3070 3069 3068 3067 3066 3065 3065 3064 3063 3062 3061
3026 3027 3029 3030 3032 3034 3036 3038 3039 3040 3042 3044 3046 3048 3050 3051 3053 3053 3054 3055 3055 3055 3056 3056 3056 3057 3058 3059 3060 3061 3062 3063 3064 3065 3065 3066 3067 3068 3068 3069 3069 3070 3070 3070 3070 3071 3071 3071 3071 3072 3072 3072 3072 3071 3071 3070 3070 3069 3069 3068 3067 3066 3065 3065 3064 3062 3061 3060 3059
3025 3026 3028 3030 3031 3033 3035 3036 3037 3039 3041 3043 3045 3047 3049 3050 3051 3052 3052 3053 3053 3054 3054 3055 3055 3056 3057 3058 3059 3060 3061 3062 3063 3064 3065 3066 3066 3067 3068 3068 3069 3069 3070 3070 3070 3070 3070 3070 3071 3071 3071 3071 3071 3070 3070 3070 3069 3068 3067 3067 3066 3065 3064 3063 3062 3061 3060 3059 3058
3024 3025 3027 3029 3030 3031 3033 3035 3037 3039 3041 3043 3045 3046 3048 3049 3049 3050 3050 3051 3052 3052 3053 3054 3054 3055 3056 3058 3059 3060 3061 3062 3063 3064 3065 3065 3066 3067 3067 3068 3068 3069 3069 3069 3069 3069 3070 3070 3070 3070 3070 3070 3070 3069 3069 3068 3068 3067 3066 3065 3065 3064 3063 3062 3061 3060 3059 3058 3057
3022 3024 3025 3027 3029 3030 3032 3035 3036 3038 3040 3042 3044 3045 3046 3047 3047 3048 3049 3050 3050 3051 3051 3052 3053 3055 3056 3057 3058 3059 3060 3061 3062 3063 3064 3065 3065 3066 3067 3067 3068 3068 3068 3068 3068 3069 3069 3069 3069 3069 3069 3069 3069 3068 3068 3067 3066 3065 3065 3064 3063 3062 3061 3060 3060 3059 3058 3056 3055
3021 3023 3024 3026 3028 3030 3032 3034 3036 3037 3039 3041 3042 3043 3044 3045 3046 3046 3047 3048 3049 3050 3050 3051 3053 3054 3055 3057 3058 3059 3060 3061 3062 3063 3064 3064 3065 3066 3066 3066 3067 3067 3067 3067 3068 3068 3068 3068 3068 3068 3068 3068 3067 3067 3066 3065 3065 3064 3063 3062 3062 3061 3060 3059 3058 3057 3056 3055 3055
3021 3022 3024 3026 3028 3030 3031 3033 3035 3036 3038 3040 3041 3042 3043 3043 3044 3045 3045 3046 3047 3048 3050 3051 3052 3053 3055 3056 3057 3058 3059 3060 3061 3062 3063 3064 3065 3065 3065 3066 3066 3066 3066 3067 3067 3067 3067 3067 3067 3067 3067 3066 3066 3065 3065 3064 3063 3063 3062 3061 3060 3060 3059 3058 3057 3056 3055 3054 3053
3020 3022 3024 3025 3027 3029 3030 3032 3034 3036 3037 3038 3039 3040 3041 3042 3042 3043 3044 3045 3046 3047 3049 3050 3051 3053 3054 3055 3056 3057 3059 3060 3060 3061 3062 3063 3064 3064 3065 3065 3065 3065 3066 3066 3066 3066 3066 3066 3066 3066 3065 3065 3065 3064 3063 3063 3062 3061 3060 3060 3059 3058 3057 3056 3056 3055 3054 3053 3052
3020 3022 3023 3025 3026 3028 3030 3031 3033 3035 3036 3037 3038 3038 3039 3040 3041 3042 3043 3044 3045 3046 3048 3049 3051 3052 3053 3055 3055 3057 3058 3059 3060 3061 3062 3063 3063 3064 3064 3064 3065 3065 3065 3065 3065 3065 3065 3065 3065 3065 3064 3064 3063 3063 3062 3061 3060 3060 3059 3059 3058 3057 3056 3055 3055 3054 3053 3052 3051
3019 3020 3022 3024 3025 3027 3029 3031 3032 3033 3034 3035 3036 3037 3038 3039 3040 3041 3042 3043 3045 3046 3047 3049 3050 3051 3053 3054 3055 3056 3057 3059 3060 3060 3061 3062 3062 3063 3063 3063 3064 3064 3064 3064 3064 3064 3064 3064 3064 3064 3063 3062 3062 3061 3061 3060 3060 3059 3058 3057 3057 3056 3055 3055 3054 3053 3052 3051 3050
3018 3020 3022 3024 3025 3027 3028 3030 3031 3032 3033 3034 3035 3035 3036 3037 3039 3040 3041 3043 3044 3045 3047 3048 3050 3051 3052 3054 3055 3055 3057 3058 3059 3060 3060 3061 3061 3062 3062 3062 3063 3063 3063 3063 3064 3064 3064 3063 3063 3062 3062 3061 3061 3060 3060 3059 3058 3058 3057 3056 3056 3055 3054 3054 3053 3052 3051 3050 3049
3018 3020 3021 3023 3025 3026 3027 3028 3030 3030 3031 3032 3033 3034 3035 3036 3037 3039 3040 3042 3043 3045 3046 3048 3049 3050 3052 3053 3054 3055 3056 3057 3058 3059 3060 3060 3060 3061 3061 3062 3062 3062 3062 3063 3063 3063 3063 3062 3062 3061 3061 3060 3060 3059 3059 3058 3057 3056 3056 3055 3055 3054 3053 3052 3052 3051 3050 3049 3048